Location: Unspecified
(0.0000°N, 0.0000°E)
Time: 13:58:39
(UTC+00:00)

Transit 2A - All Passes

Search period start: 29 April 2016 00:00
Search period end: 09 May 2016 00:00
Orbit: 594 x 966 km, 66.7° (Epoch: 28 April)

Date Brightness Start Highest point End Pass type
(mag) Time Alt. Az. Time Alt. Az. Time Alt. Az.
29 Apr - 00:02:40 10° NNW 00:09:03 82° ENE 00:15:10 10° SSE night (unlit)
29 Apr - 10:58:54 10° SE 11:00:04 11° ESE 11:01:14 10° E daylight
29 Apr - 12:39:09 10° SW 12:42:52 28° WNW 12:46:46 10° N daylight
29 Apr - 23:28:59 10° N 23:35:08 52° ENE 23:41:03 10° SE night (unlit)
30 Apr - 01:15:02 10° W 01:18:05 14° WSW 01:21:04 10° SW night (unlit)
30 Apr - 12:04:44 10° SSW 12:08:57 52° WNW 12:13:22 10° N daylight
30 Apr - 22:55:36 10° N 23:01:12 33° ENE 23:06:37 10° SE night (unlit)
01 May - 00:39:24 10° WNW 00:44:11 23° WSW 00:48:49 10° SSW night (unlit)
01 May - 11:30:44 10° SSW 11:35:03 83° ESE 11:39:36 10° NNE daylight
01 May - 22:22:38 10° NNE 22:27:15 21° ENE 22:31:43 10° ESE night (unlit)
02 May - 00:04:35 10° NW 00:10:18 36° WSW 00:15:46 10° S night (unlit)
02 May - 10:57:04 10° S 11:01:10 43° ESE 11:05:28 10° NE daylight
02 May - 21:50:38 10° NE 21:53:15 13° ENE 21:55:51 10° E night (unlit)
02 May - 23:30:13 10° NNW 23:36:25 57° WSW 23:42:19 10° S night (unlit)
03 May - 10:23:49 10° SSE 10:27:18 24° ESE 10:30:54 10° NE daylight
03 May - 12:07:58 10° W 12:10:12 14° WNW 12:12:30 10° NW daylight
03 May - 22:56:09 10° NNW 23:02:31 89° WSW 23:08:34 10° SSE night (unlit)
04 May - 09:51:23 10° SE 09:53:26 13° ESE 09:55:30 10° E daylight
04 May - 11:32:41 10° SW 11:36:15 24° WNW 11:39:58 10° NNW daylight
04 May - 22:22:22 10° N 22:28:36 58° ENE 22:34:32 10° SSE night (unlit)
05 May - 00:09:22 10° W 00:11:32 12° WSW 00:13:40 10° SW night (unlit)
05 May - 10:58:10 10° SW 11:02:19 44° WNW 11:06:42 10° N daylight
05 May - 21:48:54 10° N 21:54:40 37° ENE 22:00:12 10° SE night (unlit)
05 May - 23:33:13 10° WNW 23:37:38 20° WSW 23:41:53 10° SSW night (unlit)
06 May - 10:24:04 10° SSW 10:28:24 84° WNW 10:33:00 10° NNE daylight
06 May - 21:15:48 10° NNE 21:20:42 23° ENE 21:25:26 10° ESE night (unlit)
06 May - 22:58:15 10° NW 23:03:44 32° WSW 23:08:59 10° S night (unlit)
07 May - 09:50:18 10° S 09:54:31 51° ESE 09:58:58 10° NNE daylight
07 May - 20:43:27 10° NE 20:46:43 15° ENE 20:49:56 10° E visible
07 May - 22:23:46 10° NW 22:29:52 50° WSW 22:35:38 10° S night (unlit)
08 May - 09:16:56 10° SSE 09:20:39 28° ESE 09:24:32 10° NE daylight
08 May - 11:01:56 10° W 11:03:36 12° WNW 11:05:18 10° NW daylight
08 May - 21:49:38 10° NNW 21:55:58 80° WSW 22:01:58 10° SSE visible
